| time (UTC) | temp C | wind direction | speed KPH | gust KPH | rain 1hr cm | rain 24hr cm | rain mn cm | humidity % | barometer mb |
| 20260504081834 | 11 | 174 | 6.4 | 1.6 | 0.00 | 0.00 | 0.00 | ||
| 20260504080829 | 11 | 228 | 1.6 | 6.4 | 0.00 | 0.00 | 0.00 | ||
| 20260504050750 | 10 | 259 | 8.0 | 11.3 | 0.00 | 0.00 | 0.00 | ||
| 20260504050603 | 10 | 259 | 8.0 | 11.3 | 0.00 | 0.00 | 0.00 | ||
| 20260504044554 | 9 | 170 | 0.0 | 0.0 | 0.00 | 0.00 | 0.00 | ||
| 20260504043549 | 9 | 273 | 3.2 | 3.2 | 0.00 | 0.00 | 0.00 | ||
| 20260504042544 | 9 | 225 | 4.8 | 3.2 | 0.00 | 0.00 | 0.00 | ||
| 20260504041539 | 8 | 229 | 4.8 | 4.8 | 0.00 | 0.00 | 0.00 | ||
| 20260504040529 | 8 | 153 | 0.0 | 0.0 | 0.00 | 0.00 | 0.00 | ||
| 20260504035520 | 8 | 153 | 0.0 | 0.0 | 0.00 | 0.00 | 0.00 | ||
| 20260504034507 | 9 | 153 | 0.0 | 0.0 | 0.00 | 0.00 | 0.00 | ||
| 20260504033457 | 9 | 236 | 0.0 | 0.0 | 0.00 | 0.00 | 0.00 | ||
| 20260504032450 | 8 | 236 | 0.0 | 0.0 | 0.00 | 0.00 | 0.00 | ||
| 20260504031444 | 9 | 236 | 0.0 | 0.0 | 0.00 | 0.00 | 0.00 | ||
| 20260504030438 | 8 | 236 | 0.0 | 0.0 | 0.00 | 0.00 | 0.00 | ||
| 20260504025432 | 8 | 236 | 0.0 | 0.0 | 0.00 | 0.00 | 0.00 | ||
| 20260504024421 | 10 | 236 | 0.0 | 0.0 | 0.00 | 0.00 | 0.00 | ||
| 20260504023414 | 8 | 236 | 0.0 | 0.0 | 0.00 | 0.00 | 0.00 | ||
| 20260504022405 | 8 | 236 | 0.0 | 0.0 | 0.00 | 0.00 | 0.00 | ||
| 20260504021341 | 9 | 236 | 0.0 | 0.0 | 0.00 | 0.00 | 0.00 | ||
| 20260504020337 | 8 | 236 | 0.0 | 0.0 | 0.00 | 0.00 | 0.00 | ||
| 20260504015329 | 9 | 236 | 0.0 | 0.0 | 0.00 | 0.00 | 0.00 | ||
| 20260504014322 | 9 | 236 | 0.0 | 0.0 | 0.00 | 0.00 | 0.00 | ||
| 20260504011303 | 10 | 236 | 0.0 | 0.0 | 0.00 | 0.00 | 0.00 | ||
| 20260504010246 | 10 | 236 | 0.0 | 0.0 | 0.00 | 0.00 | 0.00 | ||
| 20260504005232 | 10 | 236 | 0.0 | 0.0 | 0.00 | 0.00 | 0.00 | ||
| 20260504004213 | 10 | 236 | 0.0 | 0.0 | 0.00 | 0.00 | 0.00 | ||
| 20260504003207 | 10 | 236 | 0.0 | 0.0 | 0.00 | 0.00 | 0.00 | ||
| 20260504002157 | 11 | 236 | 0.0 | 0.0 | 0.00 | 0.00 | 0.00 | ||
| 20260504001150 | 12 | 269 | 0.0 | 0.0 | 0.00 | 0.00 | 0.00 | ||
| 20260504000148 | 12 | 269 | 0.0 | 0.0 | 0.00 | 0.00 | 0.00 | ||
| 20260503235136 | 13 | 210 | 0.0 | 0.0 | 0.00 | 0.00 | 0.00 | ||
| 20260503234128 | 13 | 262 | 0.0 | 0.0 | 0.00 | 0.00 | 0.00 | ||
| 20260503233122 | 14 | 252 | 0.0 | 3.2 | 0.00 | 0.00 | 0.00 | ||
| 20260503232115 | 14 | 243 | 3.2 | 4.8 | 0.00 | 0.00 | 0.00 | ||
| 20260503231108 | 15 | 307 | 0.0 | 3.2 | 0.00 | 0.00 | 0.00 | ||
| 20260503230059 | 15 | 274 | 1.6 | 3.2 | 0.00 | 0.00 | 0.00 | ||
| 20260503225052 | 16 | 23 | 6.4 | 1.6 | 0.00 | 0.00 | 0.00 | ||
| 20260503224046 | 17 | 304 | 1.6 | 0.0 | 0.00 | 0.00 | 0.00 | ||
| 20260503223038 | 17 | 240 | 9.7 | 9.7 | 0.00 | 0.00 | 0.00 | ||
| 20260503222032 | 17 | 307 | 8.0 | 8.0 | 0.00 | 0.00 | 0.00 | ||
| 20260503221027 | 18 | 295 | 4.8 | 6.4 | 0.00 | 0.00 | 0.00 | ||
| 20260503220024 | 18 | 280 | 4.8 | 6.4 | 0.00 | 0.00 | 0.00 | ||
| 20260503214002 | 18 | 295 | 4.8 | 3.2 | 0.00 | 0.00 | 0.00 | ||
| 20260503213002 | 18 | 267 | 3.2 | 6.4 | 0.00 | 0.00 | 0.00 | ||
| 20260503211956 | 18 | 280 | 6.4 | 8.0 | 0.00 | 0.00 | 0.00 | ||
| 20260503210951 | 18 | 343 | 1.6 | 4.8 | 0.00 | 0.00 | 0.00 | ||
| 20260503205944 | 17 | 280 | 8.0 | 4.8 | 0.00 | 0.00 | 0.00 | ||
| 20260503204934 | 18 | 333 | 6.4 | 6.4 | 0.00 | 0.00 | 0.00 | ||
| 20260503203930 | 18 | 255 | 4.8 | 12.9 | 0.00 | 0.00 | 0.00 | ||
| 20260503202927 | 18 | 345 | 9.7 | 3.2 | 0.00 | 0.00 | 0.00 | ||
| 20260503201923 | 18 | 233 | 9.7 | 11.3 | 0.00 | 0.00 | 0.00 | ||
| 20260503200916 | 18 | 352 | 9.7 | 8.0 | 0.00 | 0.00 | 0.00 | ||
| 20260503195913 | 18 | 308 | 3.2 | 8.0 | 0.00 | 0.00 | 0.00 | ||
| 20260503194907 | 17 | 277 | 11.3 | 14.5 | 0.00 | 0.00 | 0.00 | ||
| 20260503193903 | 18 | 297 | 8.0 | 16.1 | 0.00 | 0.00 | 0.00 | ||
| 20260503192900 | 18 | 336 | 8.0 | 11.3 | 0.00 | 0.00 | 0.00 | ||
| 20260503191848 | 17 | 269 | 14.5 | 4.8 | 0.00 | 0.00 | 0.00 | ||
| 20260503190837 | 18 | 285 | 11.3 | 17.7 | 0.00 | 0.00 | 0.00 | ||
| 20260503185831 | 17 | 281 | 8.0 | 8.0 | 0.00 | 0.00 | 0.00 | ||
| 20260503184827 | 18 | 293 | 11.3 | 9.7 | 0.00 | 0.00 | 0.00 | ||
| 20260503183823 | 17 | 322 | 12.9 | 12.9 | 0.00 | 0.00 | 0.00 | ||
| 20260503182818 | 17 | 273 | 11.3 | 8.0 | 0.00 | 0.00 | 0.00 | ||
| 20260503181812 | 17 | 352 | 4.8 | 0.0 | 0.00 | 0.00 | 0.00 | ||
| 20260503180806 | 17 | 319 | 9.7 | 11.3 | 0.00 | 0.00 | 0.00 | ||
| 20260503175801 | 17 | 301 | 6.4 | 3.2 | 0.00 | 0.00 | 0.00 | ||
| 20260503174758 | 16 | 255 | 14.5 | 11.3 | 0.00 | 0.00 | 0.00 | ||
| 20260503173750 | 16 | 287 | 9.7 | 11.3 | 0.00 | 0.00 | 0.00 | ||
| 20260503172747 | 16 | 269 | 11.3 | 4.8 | 0.00 | 0.00 | 0.00 | ||
| 20260503171744 | 15 | 21 | 8.0 | 9.7 | 0.00 | 0.00 | 0.00 | ||
| 20260503170740 | 14 | 13 | 9.7 | 6.4 | 0.00 | 0.00 | 0.00 | ||
| 20260503150629 | 14 | 333 | 4.8 | 3.2 | 0.00 | 0.00 | 0.00 | ||
| 20260503130528 | 10 | 321 | 11.3 | 9.7 | 0.00 | 0.00 | 0.00 | ||
| 20260503110418 | 7 | 3 | 9.7 | 9.7 | 0.00 | 0.00 | 0.00 |